Shaw AFB, SC

9:02 PM EST on February 20, 2017 (GMT -0500)
Shaw Air Force Base

Weather History for KSSC - January, 2013

Change the Weather History Date:

Monday, January 28, 2013

  Actual Average Record
Temperature  
Mean Temperature 46 °F -  
Max Temperature 57 °F 53 °F 77 °F (1999)
Min Temperature 35 °F 33 °F 19 °F (2000)
Degree Days  
Heating Degree Days 19    
Moisture  
Dew Point 33 °F    
Average Humidity 68    
Maximum Humidity 87    
Minimum Humidity 55    
Precipitation  
Precipitation 0.01 in - - ()
Sea Level Pressure  
Sea Level Pressure 30.40 in    
Wind  
Wind Speed 4 mph (NE)    
Max Wind Speed 8 mph    
Max Gust Speed -    
Visibility 10 miles    
Events Rain    
Averages and records for this station are not official NWS values.
T = Trace of Precipitation, MM = Missing Value Source: NWS Daily Summary

Daily Weather History Graph

Daily Weather History Graph

Search for Another Location

Airport or City:

Trip Planner

Search our weather history database for the weather conditions in past years. The results will help you decide how hot, cold, wet, or windy it might be!

Date:

Astronomy

Jan. 28, 2013 Rise Set
Actual Time 7:21 AM EST 5:48 PM EST
Civil Twilight 6:54 AM EST 6:15 PM EST
Nautical Twilight 6:24 AM EST 6:45 PM EST
Astronomical Twilight 5:55 AM EST 7:14 PM EST
Moon 7:34 PM EST (1/28) 7:52 AM EST (1/28)
Length of Visible Light 11h 20m
Length of Day
10h 27m
Full, 98% of the Moon is Illuminated
Jan 28
Full
Feb 3
Last Quarter
Feb 10
New
Feb 17
First Quarter
Feb 25
Full

Hourly Weather History & Observations

Time (EST) Temp. Windchill Dew Point Humidity Pressure Visibility Wind Dir Wind Speed Gust Speed Precip Events Conditions
12:55 AM 37.8 °F 33.3 °F 23.7 °F 57% 30.47 in 10.0 mi East 5.8 mph - N/A   Mostly Cloudy
1:55 AM 38.1 °F 35.7 °F 24.3 °F 57% 30.46 in 10.0 mi ENE 3.5 mph - N/A   Mostly Cloudy
2:41 AM 37.4 °F 33.8 °F 24.8 °F 60% 30.45 in 10.0 mi NNE 4.6 mph - N/A   Mostly Cloudy
2:55 AM 37.8 °F 33.3 °F 25.2 °F 60% 30.45 in 10.0 mi NE 5.8 mph - N/A   Overcast
3:17 AM 37.4 °F 32.8 °F 24.8 °F 60% 30.44 in 10.0 mi ENE 5.8 mph - N/A   Overcast
3:44 AM 37.4 °F 33.8 °F 24.8 °F 60% 30.44 in 10.0 mi NE 4.6 mph - N/A   Overcast
3:53 AM 37.4 °F 32.1 °F 24.8 °F 60% 30.44 in 10.0 mi NNE 6.9 mph - N/A   Overcast
3:55 AM 37.4 °F 32.1 °F 25.5 °F 62% 30.44 in 10.0 mi NNE 6.9 mph - N/A   Overcast
4:00 AM 37.4 °F 32.1 °F 24.8 °F 60% 30.44 in 10.0 mi NNE 6.9 mph - N/A   Mostly Cloudy
4:20 AM 35.6 °F 29.9 °F 24.8 °F 65% 30.45 in 10.0 mi NNE 6.9 mph - N/A   Scattered Clouds
4:28 AM 35.6 °F 29.9 °F 24.8 °F 65% 30.44 in 10.0 mi NNE 6.9 mph - N/A   Mostly Cloudy
4:55 AM 37.0 °F 31.6 °F 25.7 °F 64% 30.45 in 10.0 mi NNE 6.9 mph - N/A   Overcast
5:55 AM 37.9 °F 34.4 °F 25.3 °F 60% 30.46 in 10.0 mi North 4.6 mph - N/A   Overcast
6:55 AM 38.7 °F 32.9 °F 25.9 °F 60% 30.47 in 10.0 mi NNE 8.1 mph - N/A   Overcast
7:55 AM 38.7 °F 34.3 °F 26.4 °F 61% 30.46 in 10.0 mi ENE 5.8 mph - N/A   Overcast
8:07 AM 39.2 °F 34.2 °F 26.6 °F 61% 30.46 in 10.0 mi NE 6.9 mph - N/A   Overcast
8:55 AM 41.0 °F 38.0 °F 27.3 °F 58% 30.46 in 10.0 mi NE 4.6 mph - N/A   Overcast
9:51 AM 42.8 °F 39.3 °F 28.4 °F 57% 30.46 in 10.0 mi NNE 5.8 mph - N/A   Overcast
9:53 AM 42.8 °F 38.6 °F 28.4 °F 57% 30.46 in 10.0 mi NNE 6.9 mph - N/A   Overcast
9:55 AM 43.2 °F 39.0 °F 27.9 °F 55% 30.46 in 10.0 mi NNE 6.9 mph - 0.00 in Rain Light Rain
10:00 AM 42.8 °F 39.3 °F 30.2 °F 61% 30.47 in 9.0 mi NNE 5.8 mph - N/A Rain Light Rain
10:13 AM 42.8 °F 39.3 °F 32.0 °F 66% 30.46 in 10.0 mi ENE 5.8 mph - N/A   Overcast
10:26 AM 42.8 °F 40.1 °F 30.2 °F 61% 30.47 in 10.0 mi ENE 4.6 mph - N/A Rain Light Rain
10:55 AM 41.7 °F - 33.4 °F 72% 30.45 in 4.0 mi Calm Calm - 0.00 in Rain Light Rain
11:10 AM 41.0 °F - 35.6 °F 81% 30.44 in 10.0 mi Calm Calm - N/A   Overcast
11:55 AM 43.7 °F 42.1 °F 36.3 °F 75% 30.42 in 10.0 mi ENE 3.5 mph - 0.01 in   Overcast
12:02 PM 44.6 °F 42.2 °F 37.4 °F 76% 30.41 in 10.0 mi ENE 4.6 mph - N/A   Overcast
12:15 PM 44.6 °F - 37.4 °F 76% 30.41 in 10.0 mi Calm Calm - N/A   Overcast
12:21 PM 44.6 °F - 37.4 °F 76% 30.40 in 10.0 mi Calm Calm - N/A   Mostly Cloudy
12:22 PM 44.6 °F - 37.4 °F 76% 30.40 in 10.0 mi Calm Calm - N/A   Mostly Cloudy
12:38 PM 44.6 °F - 37.4 °F 76% 30.38 in 10.0 mi NNW 1.2 mph - N/A   Overcast
12:55 PM 45.5 °F - 37.4 °F 73% 30.38 in 10.0 mi Calm Calm - N/A   Overcast
1:55 PM 48.7 °F - 39.2 °F 70% 30.35 in 10.0 mi Calm Calm - N/A   Overcast
2:55 PM 52.5 °F - 40.5 °F 64% 30.32 in 10.0 mi Calm Calm - N/A   Mostly Cloudy
3:55 PM 56.1 °F - 41.7 °F 58% 30.32 in 10.0 mi Calm Calm - N/A   Clear
4:55 PM 57.9 °F - 42.4 °F 56% 30.30 in 10.0 mi SW 3.5 mph - N/A   Clear
5:55 PM 52.7 °F - 42.4 °F 68% 30.30 in 10.0 mi Calm Calm - N/A   Partly Cloudy
6:55 PM 49.5 °F - 42.3 °F 76% 30.30 in 10.0 mi Calm Calm - N/A   Clear
7:55 PM 45.9 °F - 40.1 °F 80% 30.30 in 10.0 mi Calm Calm - N/A   Clear
8:55 PM 43.5 °F - 39.0 °F 84% 30.30 in 10.0 mi Calm Calm - N/A   Mostly Cloudy
9:55 PM 47.8 °F - 42.1 °F 80% 30.30 in 10.0 mi SW 3.5 mph - N/A   Overcast
10:55 PM 44.2 °F 41.8 °F 40.6 °F 87% 30.28 in 10.0 mi SW 4.6 mph - N/A   Clear
11:08 PM 44.6 °F - 41.0 °F 87% 30.28 in 9.0 mi Calm Calm - N/A   Clear
11:21 PM 44.6 °F - 41.0 °F 87% 30.29 in 8.0 mi Calm Calm - N/A   Clear
11:55 PM 46.2 °F - 41.0 °F 82% 30.29 in 10.0 mi Calm Calm - N/A   Clear